Jefferson City, MO

11:12 PM CDT on September 22, 2017 (GMT -0500)
Jefferson City Memorial

Weather History for KJEF - February, 2014

Change the Weather History Date:

Tuesday, February 4, 2014

  Actual Average Record
Temperature  
Mean Temperature 22 °F -  
Max Temperature 26 °F 41 °F 80 °F (1962)
Min Temperature 19 °F 20 °F -5 °F (1961)
Degree Days  
Heating Degree Days 42    
Moisture  
Dew Point 19 °F    
Average Humidity 82    
Maximum Humidity 88    
Minimum Humidity 71    
Precipitation  
Precipitation 0.00 in - - ()
Sea Level Pressure  
Sea Level Pressure 30.12 in    
Wind  
Wind Speed 8 mph (NE)    
Max Wind Speed 16 mph    
Max Gust Speed 23 mph    
Visibility 3 miles    
Events Fog , Snow    
Averages and records for this station are not official NWS values.
T = Trace of Precipitation, MM = Missing Value Source: NWS Daily Summary

Daily Weather History Graph

Daily Weather History Graph

Search for Another Location

Airport or City:

Trip Planner

Search our weather history database for the weather conditions in past years. The results will help you decide how hot, cold, wet, or windy it might be!

Date:

Astronomy

Feb. 04, 2014 Rise Set
Actual Time 7:11 AM CST 5:34 PM CST
Civil Twilight 6:43 AM CST 6:02 PM CST
Nautical Twilight 6:12 AM CST 6:33 PM CST
Astronomical Twilight 5:41 AM CST 7:04 PM CST
Moon 9:54 AM CST (2/4) 11:24 PM CST (2/4)
Length of Visible Light 11h 18m
Length of Day
10h 22m
Waxing Crescent, 29% of the Moon is Illuminated
Feb 4
Waxing Crescent
Feb 6
First Quarter
Feb 14
Full
Feb 22
Last Quarter
Mar 1
New

Hourly Weather History & Observations

Time (CST) Temp. Windchill Dew Point Humidity Pressure Visibility Wind Dir Wind Speed Gust Speed Precip Events Conditions
12:53 AM 24.1 °F 15.2 °F 16.0 °F 71% 30.27 in 10.0 mi East 8.1 mph - N/A   Overcast
1:53 AM 24.1 °F 15.2 °F 16.0 °F 71% 30.27 in 10.0 mi East 8.1 mph - N/A   Scattered Clouds
2:53 AM 24.1 °F 15.2 °F 16.0 °F 71% 30.27 in 10.0 mi East 8.1 mph - N/A   Overcast
3:53 AM 24.1 °F 15.2 °F 16.0 °F 71% 30.26 in 10.0 mi East 8.1 mph - N/A   Overcast
4:53 AM 24.1 °F 16.0 °F 17.1 °F 75% 30.24 in 10.0 mi ENE 6.9 mph - N/A   Overcast
5:37 AM 24.8 °F 19.1 °F 17.6 °F 74% 30.27 in 2.5 mi ENE 4.6 mph - 0.00 in Snow Light Snow
5:46 AM 23.0 °F 18.4 °F 17.6 °F 80% 30.28 in 1.0 mi ENE 3.5 mph - 0.00 in Snow Light Snow
5:53 AM 23.0 °F - 19.0 °F 85% 30.27 in 0.8 mi Calm Calm - 0.00 in Snow Light Snow
6:21 AM 23.0 °F 17.0 °F 19.4 °F 86% 30.27 in 1.0 mi NNE 4.6 mph - 0.00 in Snow Light Snow
6:51 AM 23.0 °F 18.4 °F 19.4 °F 86% 30.31 in 0.8 mi ENE 3.5 mph - 0.00 in Snow Light Snow
6:53 AM 23.0 °F 17.0 °F 19.9 °F 88% 30.30 in 0.8 mi NE 4.6 mph - 0.00 in Snow Light Snow
7:25 AM 23.0 °F 13.9 °F 19.4 °F 86% 30.28 in 0.5 mi ENE 8.1 mph - 0.00 in Fog , Snow Snow
7:44 AM 23.0 °F 17.0 °F 19.4 °F 86% 30.25 in 1.0 mi Variable 4.6 mph - 0.00 in Snow Light Snow
7:53 AM 23.0 °F 13.9 °F 19.9 °F 88% 30.25 in 1.8 mi ENE 8.1 mph - 0.00 in Snow Light Snow
8:01 AM 23.0 °F 13.1 °F 19.4 °F 86% 30.25 in 2.5 mi ENE 9.2 mph - 0.00 in Snow Light Snow
8:08 AM 23.0 °F 13.9 °F 19.4 °F 86% 30.25 in 3.0 mi East 8.1 mph - 0.00 in Snow Light Snow
8:53 AM 23.0 °F 13.1 °F 19.0 °F 85% 30.23 in 6.0 mi East 9.2 mph - 0.00 in   Overcast
9:53 AM 23.0 °F 11.7 °F 18.0 °F 81% 30.23 in 7.0 mi East 11.5 mph - 0.00 in Snow Light Snow
10:53 AM 24.1 °F 13.1 °F 18.0 °F 77% 30.16 in 6.0 mi ENE 11.5 mph 19.6 mph 0.00 in Snow Light Snow
11:08 AM 24.8 °F 12.9 °F 19.4 °F 80% 30.17 in 2.5 mi ENE 13.8 mph - 0.00 in Snow Light Snow
11:15 AM 24.8 °F 12.9 °F 19.4 °F 80% 30.17 in 6.0 mi ENE 13.8 mph 19.6 mph 0.00 in Snow Light Snow
11:53 AM 25.0 °F 13.6 °F 19.0 °F 78% 30.17 in 10.0 mi ENE 12.7 mph - 0.00 in   Overcast
12:20 PM 24.8 °F 13.4 °F 19.4 °F 80% 30.14 in 1.8 mi East 12.7 mph - 0.00 in Snow Light Snow
12:41 PM 24.8 °F 14.6 °F 19.4 °F 80% 30.10 in 0.5 mi ENE 10.4 mph 21.9 mph 0.00 in Snow Snow
12:49 PM 24.8 °F 14.0 °F 21.2 °F 86% 30.10 in 0.5 mi NE 11.5 mph - 0.00 in Fog , Snow Snow
12:53 PM 25.0 °F 13.6 °F 21.0 °F 85% 30.08 in 0.5 mi ENE 12.7 mph 18.4 mph 0.00 in Fog , Snow Snow
1:53 PM 26.1 °F 16.2 °F 21.0 °F 81% 30.04 in 0.5 mi ENE 10.4 mph 18.4 mph 0.00 in Snow Snow
2:02 PM 26.6 °F 17.5 °F 21.2 °F 80% 30.05 in 0.8 mi ENE 9.2 mph 20.7 mph 0.00 in Snow Light Snow
2:42 PM 24.8 °F 13.4 °F 21.2 °F 86% 30.04 in 0.5 mi East 12.7 mph 23.0 mph 0.00 in Fog , Snow Snow
2:53 PM 25.0 °F 12.2 °F 21.0 °F 85% 30.01 in 0.8 mi ENE 16.1 mph - 0.00 in Snow Snow
3:06 PM 24.8 °F 13.4 °F 21.2 °F 86% 30.02 in 1.0 mi ENE 12.7 mph - 0.00 in Snow Snow
3:34 PM 24.8 °F 12.4 °F 19.4 °F 80% 29.99 in 1.5 mi ENE 15.0 mph - 0.00 in Snow Snow
3:53 PM 25.0 °F 13.1 °F 19.9 °F 81% 29.98 in 1.8 mi East 13.8 mph 21.9 mph 0.00 in Snow Snow
4:00 PM 24.8 °F 17.9 °F 19.4 °F 80% 30.04 in 1.8 mi Variable 5.8 mph - 0.00 in Snow Snow
4:32 PM 24.8 °F 16.1 °F 21.2 °F 86% 30.02 in 0.8 mi ENE 8.1 mph - 0.00 in   Mist
4:53 PM 25.0 °F 19.3 °F 21.0 °F 85% 30.00 in 0.5 mi Variable 4.6 mph - 0.00 in Fog Light Freezing Fog
5:21 PM 24.8 °F 17.9 °F 21.2 °F 86% 30.00 in 0.8 mi NNE 5.8 mph - N/A   Mist
5:28 PM 24.8 °F 17.9 °F 21.2 °F 86% 30.00 in 1.5 mi NNE 5.8 mph - N/A   Overcast
5:53 PM 24.1 °F 18.2 °F 19.9 °F 84% 29.98 in 1.0 mi Variable 4.6 mph - N/A   Mist
6:23 PM 24.8 °F 17.9 °F 19.4 °F 80% 29.97 in 1.5 mi Variable 5.8 mph - N/A   Overcast
6:53 PM 24.1 °F 18.2 °F 19.0 °F 81% 29.99 in 1.2 mi NNE 4.6 mph - N/A   Haze
7:53 PM 21.9 °F 15.7 °F 18.0 °F 85% 30.01 in 1.2 mi Variable 4.6 mph - 0.00 in Snow Light Snow
8:53 PM 21.9 °F 17.2 °F 17.1 °F 82% 30.02 in 1.8 mi North 3.5 mph - 0.00 in Snow Light Snow
9:01 PM 21.2 °F 13.6 °F 17.6 °F 86% 30.03 in 3.0 mi North 5.8 mph - 0.00 in Snow Light Snow
9:53 PM 21.0 °F 12.4 °F 16.0 °F 81% 30.04 in 3.0 mi North 6.9 mph - 0.00 in   Overcast
10:09 PM 21.2 °F 11.7 °F 17.6 °F 86% 30.04 in 2.5 mi North 8.1 mph - N/A   Overcast
10:23 PM 21.2 °F 10.9 °F 17.6 °F 86% 30.04 in 1.5 mi North 9.2 mph - N/A   Overcast
10:41 PM 21.2 °F 11.7 °F 17.6 °F 86% 30.03 in 2.0 mi North 8.1 mph - N/A   Overcast
10:51 PM 21.2 °F 8.9 °F 15.8 °F 80% 30.03 in 4.0 mi North 12.7 mph - N/A   Overcast
10:53 PM 21.0 °F 9.3 °F 16.0 °F 81% 30.03 in 5.0 mi North 11.5 mph - N/A   Overcast
11:29 PM 19.4 °F 7.2 °F 14.0 °F 80% 30.03 in 2.5 mi North 11.5 mph - N/A   Overcast
11:38 PM 19.4 °F 8.6 °F 14.0 °F 80% 30.03 in 1.8 mi North 9.2 mph 17.3 mph N/A   Overcast
11:51 PM 19.4 °F 9.5 °F 14.0 °F 80% 30.04 in 3.0 mi North 8.1 mph - N/A   Overcast
11:52 PM 19.9 °F 11.1 °F 14.0 °F 78% 30.03 in 3.0 mi North 6.9 mph - N/A   Overcast